Location: Axenstein
(46.9833°N, 8.6167°E)
Time: 07:43:58
(UTC+00:00)

Daily predictions for brighter satellites

Satellite Brightness Start Highest point End
(mag) Time Altitude Azimuth Time Altitude Azimuth Time Altitude Azimuth
FALCON 9 DEB 3.1 19:57:09 10° WSW 20:00:34 88° NNW 20:04:01 10° ENE
Cosmos 292 Rocket 4.4 19:57:10 10° SSW 20:01:58 63° WNW 20:06:46 10° NNE
Cosmos 1455 Rocket 3.4 19:57:45 10° N 20:02:09 55° ENE 20:06:32 10° SSE
Okean 1 Rocket 4.0 19:58:48 10° NNW 20:03:01 48° W 20:07:14 10° SSW
Cosmos 2100 Rocket 4.3 19:57:14 10° N 20:03:31 58° ENE 20:09:43 10° SSE
USA 81 4.1 19:59:11 10° N 20:04:29 88° E 20:09:46 10° S
ERS-2 3.8 20:01:54 10° N 20:05:20 39° WNW 20:08:45 10° SW
ARIANE 5 R/B 3.6 20:01:41 10° SE 20:05:43 35° ENE 20:09:48 10° N
Meteor 2-20 Rocket 4.5 19:59:47 10° S 20:05:53 75° E 20:11:58 10° NNE
Cosmos 1315 Rocket 4.0 20:02:19 10° NNW 20:06:16 43° W 20:10:09 10° SSW
BREEZE-M DEB (TANK) 2.6 20:04:28 10° SW 20:06:45 43° SE 20:10:42 10° ENE
ATLAS 3B R/B 3.1 20:01:00 10° S 20:06:54 37° ESE 20:12:57 10° NE
Cosmos 1707 3.4 20:03:42 10° SSW 20:07:32 60° W 20:11:25 10° N
IGS 5A 3.6 20:04:43 10° S 20:08:52 76° WSW 20:13:04 10° NNW
NOSS 3-2 (C) 4.4 20:04:58 10° WSW 20:10:35 52° NW 20:17:06 10° NE
Cosmos 1461 3.0 20:06:54 10° NW 20:11:07 70° WSW 20:15:07 10° SSE
ATLAS CENTAUR R/B 2.0 20:09:30 10° NNW 20:13:45 54° NE 20:18:13 10° SE
Cosmos 2173 Rocket 4.2 20:10:10 10° N 20:16:33 67° E 20:22:53 10° SSE
Cosmos 405 4.3 20:14:05 10° NNE 20:16:59 25° ENE 20:19:49 10° SE
SL-8 R/B 4.0 20:12:56 10° WNW 20:17:40 57° SSW 20:22:21 10° SE
Cosmos 1452 Rocket 4.0 20:14:15 10° SSW 20:19:29 66° WNW 20:24:46 10° NNE
Cosmos 2016 Rocket 4.4 20:14:32 10° N 20:20:26 48° ENE 20:26:20 10° SSE
SL-4 R/B 3.7 20:18:24 10° SSE 20:20:39 14° SE 20:22:50 10° E
Cosmos 2219 Rocket 2.9 20:17:53 10° S 20:22:57 35° ESE 20:28:03 10° NE
Cosmos 2333 Rocket 2.7 20:18:52 10° S 20:24:13 42° ESE 20:29:35 10° NE
FALCON 9 DEB 3.3 20:23:11 10° SSW 20:26:06 38° SE 20:29:03 10° ENE
ERS-1 Rocket 3.5 20:24:08 10° SE 20:28:51 47° ENE 20:33:41 10° N
Cosmos 1025 Rocket 3.2 20:24:48 10° S 20:29:06 57° E 20:33:23 10° NNE
Geosat 4.5 20:24:37 10° SE 20:29:26 52° NE 20:34:19 10° NNW
Lacrosse 5 rocket 1.0 20:26:06 10° SW 20:29:49 88° SE 20:33:25 10° NE
Cosmos 1844 3.7 20:25:03 10° NNW 20:30:38 87° WSW 20:36:02 11° SSE
Cosmos 1536 Rocket 4.4 20:28:12 10° SSE 20:32:07 34° E 20:36:08 10° NNE
Spot 2 Rocket 3.5 20:28:34 10° SSE 20:33:36 74° ENE 20:38:42 10° N
Cosmos 1725 Rocket 4.3 20:28:49 10° N 20:34:53 53° ENE 20:40:28 12° SSE
Cosmos 1727 Rocket 4.5 20:28:45 10° SSW 20:35:00 65° WNW 20:41:15 10° N
Cosmos 1331 Rocket 4.0 20:31:18 10° SSW 20:36:32 84° ESE 20:41:51 10° NNE
Cosmos 1900 4.4 20:34:42 10° NW 20:39:36 74° WSW 20:43:50 14° SSE
DNEPR-1 R/B 3.6 20:35:39 10° NW 20:39:53 75° NE 20:43:36 14° SE
FALCON 9 DEB 2.7 20:38:37 10° SW 20:41:42 71° SSE 20:44:47 10° ENE
KORONAS-FOTON 4.5 20:39:38 10° SSW 20:43:21 55° WNW 20:47:05 10° N
CENTAUR R/B 4.4 20:37:52 10° W 20:43:38 36° NNW 20:50:27 10° NE
CARTOSAT-1 3.5 20:40:17 12° SSE 20:44:18 86° ENE 20:48:39 10° NNW
Cosmos 2237 Rocket 3.8 20:41:59 12° SE 20:44:25 16° E 20:47:40 10° ENE
Terra 2.4 20:41:19 14° SE 20:45:12 45° ENE 20:49:45 10° N
SL-14 R/B 3.5 20:41:31 11° S 20:45:19 54° E 20:49:16 10° NNE
SPOT 1/Viking Rocket 3.9 20:41:14 10° S 20:46:19 62° W 20:51:26 10° NNW
Cosmos 2360 Rocket 2.6 20:41:33 10° SW 20:47:10 67° WNW 20:52:49 10° NNE
Cosmos 1674 3.6 20:43:49 10° SSW 20:47:24 48° WNW 20:51:01 10° N
CZ-2C R/B 4.1 20:43:20 10° N 20:48:07 70° WNW 20:52:50 10° SSW
FALCON 9 DEB 2.8 20:46:35 10° SW 20:49:40 65° SE 20:52:45 10° ENE
Cosmos 2322 Rocket 3.7 20:46:09 10° WSW 20:51:30 40° NW 20:56:52 10° NNE
Cosmos 1953 3.3 20:47:45 10° NNW 20:51:39 45° W 20:55:30 10° SSW
SL-16 R/B 4.2 20:46:37 10° WSW 20:51:41 33° NW 20:56:47 10° NNE
FALCON 9 DEB 2.7 20:49:09 10° WSW 20:52:15 82° SSE 20:55:22 10° ENE
SPOT 5 3.0 20:48:16 14° SSE 20:52:40 74° ENE 20:57:31 10° N
Cosmos 1455 4.5 20:51:09 10° NE 20:52:56 13° ENE 20:54:43 10° E
Cosmos 1975 Rocket 4.3 20:50:31 10° SSW 20:54:40 42° WNW 20:58:53 10° N
Meteor 1-24 Rocket 4.1 20:51:25 14° SSE 20:55:38 42° E 21:00:49 10° NNE
Cosmos 1802 Rocket 4.1 20:49:24 10° N 20:55:43 81° W 21:01:57 11° S
Cosmos 1459 Rocket 4.3 20:51:07 10° NNW 20:57:07 65° W 21:03:06 10° S
H-2A R/B 4.3 20:53:51 10° NNE 20:57:33 32° E 20:59:52 18° SSE
Cosmos 1302 Rocket 4.0 20:52:40 10° S 20:57:53 67° ESE 21:03:06 10° NNE
Cosmos 1300 2.6 20:59:57 10° N 21:03:46 74° E 21:06:20 20° SSE
Resurs 01 Rocket 3.8 21:02:20 10° SW 21:05:39 21° W 21:08:58 10° NW
USA 267 4.5 21:05:15 10° E 21:11:16 41° NNE 21:17:18 10° NW
Cosmos 1340 2.9 21:07:31 10° SSW 21:11:16 71° WNW 21:15:03 10° N
Cosmos 2322 3.8 21:09:08 10° SSW 21:14:47 83° WNW 21:20:30 10° NNE
COSMOS 2428 2.7 21:10:46 10° SSW 21:16:28 73° ESE 21:22:14 10° NNE
Cosmos 2278 Rocket 2.7 21:11:17 10° NNW 21:16:50 51° ENE 21:20:55 18° SE
Cosmos 1844 Rocket 4.0 21:12:36 10° NW 21:17:35 32° WSW 21:22:30 10° SSW
NOSS 0 Rocket 4.3 21:17:59 16° S 21:22:34 44° ESE 21:28:26 10° NE
Cosmos 389 Rocket 3.0 21:19:31 10° N 21:22:50 44° ENE 21:24:17 27° SE
Cosmos 1726 Rocket 4.5 21:20:24 10° N 21:24:34 37° ENE 21:26:53 22° SE
Cosmos 1867 3.6 21:19:44 10° NW 21:25:16 87° NE 21:28:54 22° SE
Cosmos 968 Rocket 3.5 21:25:06 10° NNW 21:30:14 76° WSW 21:33:29 23° SSE
Cosmos 1626 4.2 21:31:17 10° SW 21:34:22 25° WNW 21:37:29 10° NNW
Cosmos 1486 Rocket 4.0 21:30:30 10° NNW 21:35:45 89° WSW 21:38:52 25° SSE
SJ 16-02 3.8 21:34:59 10° NNE 21:36:58 13° NE 21:38:56 10° ENE
Meteor 2-10 Rocket 3.4 21:34:33 10° N 21:39:39 88° E 21:42:36 25° S
Cosmos 1606 Rocket 3.6 21:35:50 10° N 21:40:18 67° E 21:42:32 28° SSE
Cosmos 2233 Rocket 4.0 21:35:02 10° N 21:41:12 78° W 21:45:35 20° S
Uosat 12 SS-18 rocket 4.3 21:36:50 10° SW 21:41:13 82° NW 21:46:21 10° NE
Cosmos 1992 Rocket 4.0 21:37:59 19° S 21:41:44 68° ESE 21:46:57 10° NNE
Cosmos 1943 Rocket 4.1 21:38:00 10° N 21:42:05 21° NE 21:46:09 10° E
ARIANE 5 R/B 4.3 21:38:34 11° SSW 21:42:12 27° W 21:46:04 10° NW
Cosmos 1892 Rocket 4.1 21:43:59 28° SE 21:45:47 43° E 21:50:01 10° NNE
Cosmos 1346 Rocket 2.7 21:47:04 26° S 21:49:15 88° WNW 21:53:18 10° N
Cosmos 1447 Rocket 4.4 21:44:53 19° S 21:49:31 86° E 21:55:44 10° N
Cosmos 1354 Rocket 4.2 21:46:42 10° NNW 21:52:02 65° ENE 21:55:00 26° SE
ATLAS CENTAUR R/B 3.3 21:48:57 10° WNW 21:52:22 22° WSW 21:54:30 16° SSW
Cosmos 1980 3.8 21:51:14 22° S 21:54:48 60° ESE 22:00:25 10° NNE
Cosmos 1441 Rocket 4.4 21:54:42 25° ESE 21:55:25 27° E 21:58:42 10° NE
BREEZE-M DEB (TANK) 3.4 21:45:09 10° SW 21:56:17 51° SSE 21:59:44 10° E
ATLAS 3B R/B 3.3 21:50:55 10° WSW 21:57:21 55° NW 22:04:03 10° NE
SL-4 R/B 1.8 21:55:39 10° SW 21:59:45 65° SSE 22:03:32 10° ENE
ALOS 2 4.0 21:57:54 19° ESE 22:00:03 29° ENE 22:03:51 10° N
FALCON 9 DEB 4.2 21:58:49 10° W 22:01:49 41° NNW 22:04:49 10° NE
Cosmos 2219 Rocket 3.4 22:01:26 10° SW 22:06:49 42° NW 22:12:13 10° NNE
Cosmos 2333 Rocket 3.7 22:03:16 10° WSW 22:08:33 37° NW 22:13:51 10° NNE
Cosmos 1607 3.9 22:02:48 10° NW 22:09:16 84° SW 22:12:53 27° SSE
Lacrosse 5 rocket 3.6 22:06:18 10° WNW 22:09:17 23° NNW 22:12:13 10° NE
Cosmos 1703 3.9 22:08:43 34° SE 22:09:38 40° E 22:13:22 10° NNE
Cosmos 2228 3.7 22:07:43 10° NNW 22:11:58 47° W 22:14:06 26° SSW
Iridium 2 3.6 22:12:19 39° SSW 22:13:37 81° W 22:17:22 10° N
Meteor 2-1 Rocket 4.2 22:13:58 10° N 22:19:31 75° ENE 22:22:14 31° SSE
USA 215 3.3 22:13:15 10° ENE 22:19:41 57° SE 22:25:28 13° SSW
Terra 3.6 22:20:12 14° SW 22:23:09 23° W 22:26:56 10° NW
COBE Rocket 4.1 22:22:10 32° SE 22:24:25 66° ENE 22:29:18 10° N
SL-16 R/B 2.9 22:23:55 29° SE 22:25:42 36° ESE 22:30:50 10° NE
Cosmos 2237 Rocket 2.2 22:23:45 20° SSW 22:27:42 84° WNW 22:33:22 10° NNE
Cosmos 1455 2.5 22:25:10 10° NNW 22:28:54 55° W 22:29:59 39° SSW
Cosmos 1184 Rocket 2.8 22:29:49 55° SW 22:30:22 71° WNW 22:33:37 10° N
Cosmos 1464 Rocket 4.0 22:24:37 10° N 22:31:02 86° W 22:34:26 30° S
Cosmos 1328 4.3 22:31:00 39° SE 22:31:42 44° E 22:35:26 10° NNE
Cosmos 192 4.3 22:33:48 29° SSW 22:36:22 83° WNW 22:41:19 10° NNE
Cosmos 2369 Rocket 3.9 22:31:31 10° N 22:36:22 27° NE 22:41:11 10° ESE
GEOS 3 Rocket 3.6 22:38:08 31° SSE 22:40:48 82° SW 22:46:11 10° NW
ATLAS CENTAUR R/B 3.3 22:40:45 26° SSW 22:43:54 69° SE 22:56:22 10° NE
Cosmos 1816 Rocket 4.4 22:47:50 33° S 22:50:47 75° E 22:56:55 10° NNE
USA 32 4.3 22:46:01 10° N 22:51:13 59° E 22:53:23 34° SE
Aureole 3 4.5 22:47:58 10° N 22:51:39 38° ENE 22:53:19 28° ESE
USA 267 3.4 22:47:16 10° ESE 22:53:47 75° NNE 23:00:20 10° NW
Okean 1-7 Rocket 3.8 22:54:15 35° SSW 22:55:57 63° W 23:00:23 10° N
Cosmos 1812 Rocket 3.8 22:53:42 10° N 22:58:02 60° ENE 22:59:21 40° SE
BREEZE-M DEB (TANK) 3.3 22:56:38 10° W 23:00:08 68° N 23:10:36 10° E
Cosmos 2278 Rocket 3.5 22:55:52 10° NW 23:00:37 28° WSW 23:02:45 22° SW
Cosmos 2058 Rocket 4.1 22:58:53 10° NNW 23:02:57 35° W 23:04:24 28° SW
Cosmos 2297 3.7 22:57:49 10° NNW 23:03:30 84° ENE 23:06:10 33° SSE
Cosmos 2034 Rocket 4.1 23:01:00 10° NNW 23:07:07 66° W 23:10:01 32° SSW
NOSS 2-3 (C) 3.9 23:07:21 41° SE 23:07:47 42° ESE 23:12:12 10° NE
Thor Agena Rocket 4.0 23:02:54 10° NNE 23:08:01 49° E 23:09:46 35° SSE
SAR-Lupe-2 3.5 23:05:36 10° NNE 23:09:11 67° ESE 23:09:33 61° SE
SJ 16-02 1.2 23:11:50 10° NNW 23:16:14 90° WSW 23:17:28 47° SSE
Cosmos 1174 4.4 23:14:18 32° SSW 23:16:58 83° ESE 23:21:40 10° NE
Meteor 1-11 4.1 23:19:57 37° S 23:22:20 87° E 23:27:56 10° NNE
Meteor 1-27 4.3 23:19:07 10° N 23:24:41 70° ENE 23:27:14 33° SSE
GP-B 3.0 23:20:16 10° N 23:24:45 85° E 23:26:01 47° S
Meteor 1-4 Rocket 3.3 23:23:13 10° NNW 23:26:25 35° W 23:26:36 35° WSW
Cosmos 1825 Rocket 4.0 23:25:14 38° SE 23:26:25 50° E 23:30:44 10° NNE
Cosmos 1943 Rocket 2.0 23:20:59 10° NNW 23:26:32 83° WSW 23:28:53 36° SSE
Nimbus 7 Rocket 4.4 23:20:40 10° NNE 23:26:45 85° WNW 23:29:47 32° SSW
Cosmos 1892 3.2 23:30:16 42° SE 23:30:55 46° E 23:34:40 10° NNE
MTI 4.2 23:29:23 10° N 23:32:20 49° WNW 23:32:27 48° W
ALOS 2 3.7 23:35:17 28° WSW 23:36:19 31° W 23:40:15 10° NNW
Cosmos 1869 3.6 23:32:57 10° N 23:37:01 60° ENE 23:38:08 42° SE
Tsikada Rocket 4.2 23:34:13 29° SSW 23:37:24 62° WNW 23:43:31 10° N
CZ-2D R/B 4.3 23:35:11 10° ENE 23:37:32 13° E 23:39:52 10° ESE
Cosmos 1943 4.1 23:36:45 27° SE 23:38:36 34° ESE 23:43:38 10° NE
SL-4 R/B 2.9 23:35:39 10° W 23:39:27 46° NNW 23:43:00 10° ENE
Cosmos 990 Rocket 4.1 23:35:04 10° NNW 23:40:16 68° ENE 23:42:50 30° SE
Lacrosse 4 Rocket 4.1 23:37:49 10° N 23:40:35 17° NE 23:43:18 10° E
USA 229 DEB 3.6 23:38:46 33° SSW 23:41:46 66° SE 23:48:33 10° NE
USA 229 3.6 23:38:53 33° SSW 23:41:54 66° ESE 23:48:38 10° NE
EO 1 Del DPAF 3.8 23:38:33 10° NNE 23:42:07 42° E 23:42:38 39° ESE
NOSS 8 (F) 4.1 23:43:55 77° E 23:43:55 77° E 23:46:47 10° NE
Cosmos 1603 4.4 23:46:12 31° SSE 23:48:14 42° ESE 23:53:32 10° NE
Lacrosse 5 rocket 4.2 23:46:57 10° NW 23:49:22 17° N 23:51:47 10° NE
NOSS 3-1 (C) 3.3 23:46:44 26° SW 23:49:58 77° NW 23:56:21 10° NE
Cosmos 1953 Rocket 3.8 23:50:42 41° SSE 23:51:57 60° E 23:56:19 10° NNE
SL-16 R/B 4.2 23:47:36 10° ESE 23:52:47 29° ENE 23:57:58 10° N
Cosmos 1408 2.6 23:53:09 58° SSE 23:53:43 71° E 23:57:24 10° NNE
Cosmos 1825 2.9 23:54:28 36° SE 23:55:13 41° E 23:58:47 10° NNE
USA 306 4.4 23:56:43 21° ESE 23:56:43 21° ESE 23:59:31 10° E
